Regional Weather Roundup
Issued by NWS

Home | Current Version | Previous Version | Text Only | Print | Product List | Glossary Off
Versions: 1 2 3 4 5 6 7 8 9 10 11 12 13 14 15 16 17 18 19 20 21 22 23 24 25 26 27 28 29 30 31 32 33 34 35 36 37 38 39 40 41 42 43 44 45 46 47 48 49 50

000
ASUS43 KMPX 280401
RWRMN
WEATHER ROUNDUP FOR MINNESOTA
NATIONAL WEATHER SERVICE TWIN CITIES/CHANHASSEN MN
1100 PM CDT FRI MAR 27 2015


NOTE: "FAIR" INDICATES FEW OR NO CLOUDS BELOW 12,000 FEET WITH NO
SIGNIFICANT WEATHER AND/OR OBSTRUCTIONS TO VISIBILITY. N/A MEANS
CURRENT SKY AND/OR WEATHER CONDITIONS ARE NOT AVAILABLE.

MNZ060>063-068>070-280500-
   Twin Cities Metro

CITY           SKY/WX    TMP DP  RH WIND       PRES   REMARKS
TWIN CITIES    MOCLDY    28   7  41 SE7       30.18S WCI  21
ST PAUL        MOCLDY    28   6  39 CALM      30.20S
CRYSTAL        MOCLDY    28   9  44 CALM      30.17S
BLAINE         MOCLDY    28  10  47 CALM      30.17S
LAKEVILLE      CLOUDY    19  12  73 CALM      30.17S
EDEN PRAIRIE   CLOUDY    27   9  46 CALM      30.16S
SOUTH ST PAUL  MOCLDY    28   7  42 CALM      30.19S
LAKE ELMO      FAIR      28  12  50 CALM      30.19S
$$
MNZ001>005-007-008-013>017-022>024-027-028-280500-
   Northwest Minnesota

CITY           SKY/WX    TMP DP  RH WIND       PRES   REMARKS
BEMIDJI        FAIR      24   9  51 CALM      30.10F
HALLOCK        CLEAR     27  23  86 SE6       30.12S WCI  20
ROSEAU         CLEAR     27  19  74 CALM      30.12S
WARROAD        CLEAR     21  18  86 CALM      30.12S
THIEF RVR FALL CLEAR     27  19  74 CALM      30.12R
CROOKSTON      CLEAR     25  18  74 S6        30.13R WCI  18
FOSSTON        CLEAR     21  12  68 CALM      30.12R
DETROIT LAKES  PTCLDY    27  18  69 S3        30.11S
MOORHEAD       CLOUDY    28  25  86 SE3       30.13R
PARK RAPIDS    MOCLDY    29   9  43 CALM      30.10R
MAHNOMEN       FAIR      23  15  70 S6        30.11R WCI  16
$$
MNZ006-009>011-018-025>026-280500-
   North Central Minnesota

CITY           SKY/WX    TMP DP  RH WIND       PRES   REMARKS
BAUDETTE       CLEAR     23  15  71 W3        30.11S
FLAG ISLAND    CLEAR     18  10  73 SE3       30.12S
INTL FALLS     PTCLDY    18  13  80 CALM      30.13S
WASKISH        CLEAR     21  16  79 CALM      30.12F
BIG FORK       CLEAR     19  10  68 CALM      30.12F
LONGVILLE      PTCLDY    23  12  63 CALM      30.13S
GRAND RAPIDS   CLEAR     21   7  53 S3        30.12S
ORR            CLEAR     18   5  57 CALM      30.10S
COOK           CLEAR     18  10  73 CALM      30.13S
WALKER         FAIR      26   8  45 CALM      30.11R
$$
MNZ012-019>021-037-280500-
   Northeast Minnesota

CITY           SKY/WX    TMP DP  RH WIND       PRES   REMARKS
DULUTH         CLEAR     20  12  71 E3        30.15R
ELY            CLEAR     19   3  49 S6        30.14S WCI  11
HIBBING        CLEAR     19   5  54 SE6       30.13S WCI  11
EVELETH        CLEAR     21   7  53 CALM      30.16R
DULUTH HARBOR  CLEAR     27  19  74 CALM      30.21R
TWO HARBORS    CLEAR     21  12  68 N5        30.16S WCI  15
SILVER BAY     CLEAR     14   9  79 CALM      30.17S
GRAND MARAIS     N/A     14   9  80 NW5       30.23R WCI   6
G MARAIS ARPRT PTCLDY     1  -2  85 CALM      30.14S
$$
MNZ029>031-032-039>041-046>048-054>057-064-280500-
   West Central Minnesota

CITY           SKY/WX    TMP DP  RH WIND       PRES   REMARKS
FERGUS FALLS   CLOUDY    28  16  59 SE7       30.14S WCI  21
WHEATON        CLOUDY    28  25  86 SE5       30.13S WCI  23
MORRIS         CLOUDY    28  23  80 SE7       30.11S WCI  21
ALEXANDRIA     CLOUDY    28  17  63 SE7       30.13R WCI  21
ELBOW LAKE     CLOUDY    28  19  68 SE3       30.11S
WADENA         CLOUDY    27  14  59 CALM      30.12S
GLENWOOD       CLOUDY    27  19  74 SE5       30.13R WCI  21
APPLETON       CLOUDY    32  21  64 SE8       30.13R WCI  25
BENSON         CLOUDY    28  19  69 S6        30.13S WCI  22
ORTONVILLE     CLOUDY    30  23  74 S6        30.11S WCI  24
MADISON        MIX PCPN  32  23  69 S6        30.13R WCI  26
WILLMAR        MOCLDY    30  16  55 SE9       30.15S WCI  22
$$
MNZ033>034-036-042>043-049>051-058-059-280500-
   Central Minnesota

CITY           SKY/WX    TMP DP  RH WIND       PRES   REMARKS
ST CLOUD       CLOUDY    27  11  51 CALM      30.15S
SAUK CENTRE    CLOUDY    27  17  67 CALM      30.14R
PAYNESVILLE    CLOUDY    26  14  62 E3        30.15R
AITKIN         PTCLDY    25  12  58 CALM      30.13R
PINE RIVER     CLOUDY    25  14  63 CALM      30.16R
BRAINERD       MOCLDY    27   8  44 CALM      30.14R
STAPLES        CLOUDY    27  12  54 CALM      30.13R
LONG PRAIRIE   CLOUDY    28  18  64 S3        30.14R
LITTLE FALLS   PTCLDY    27  12  54 CALM      30.14S
LITCHFIELD     CLOUDY    28  16  59 SE6       30.15S WCI  22
BUFFALO        MOCLDY    27  10  50 CALM      30.17S
MAPLE LAKE     MOCLDY    27  18  69 CALM      30.17S
$$
MNZ037-044-045-052-053-280500-
   East Central Minnesota

CITY           SKY/WX    TMP DP  RH WIND       PRES   REMARKS
PRINCETON      MOCLDY    27  16  63 CALM      30.16S
MORA           PTCLDY    27  18  69 CALM      30.18R
CAMBRIDGE      PTCLDY    28  14  54 CALM      30.15S
RUSH CITY      MOCLDY    25  13  60 CALM      30.17S
MOOSE LAKE     PTCLDY    27   5  39 CALM      30.15R
HINCKLEY       FAIR      27  14  59 CALM      30.16R
CLOQUET        PTCLDY    21  10  63 CALM      30.15S
MCGREGOR       CLEAR     23  12  63 CALM      30.14S
$$
MNZ071>073-080-081-089-090-097-098-280500-
   Southwest Minnesota

CITY           SKY/WX    TMP DP  RH WIND       PRES   REMARKS
MONTEVIDEO     CLOUDY    28  21  74 S3        30.15R
GRANITE FALLS  MOCLDY    29  25  84 CALM      30.15S
CANBY          CLOUDY    30  25  82 SE6       30.13R WCI  24
MARSHALL       CLOUDY    28  21  74 SE10      30.13R WCI  19
REDWOOD FALLS  CLOUDY    32  22  66 E7        30.14R WCI  26
OLIVIA         MOCLDY    28  19  69 SE6       30.13F WCI  22
PIPESTONE      FLURRIES  28  25  86 SE5       30.09R WCI  23
WINDOM         LGT SNOW  28  25  86 CALM      30.13R
WORTHINGTON    CLOUDY    27  23  86 E6        30.12S WCI  20
JACKSON        LGT SNOW  32  23  69 W6        30.12S WCI  26
TRACY          LGT SNOW  28  27  93 SE6       30.13S WCI  22
SLAYTON        LGT SNOW  28  24  87 CALM      30.11S
$$
MNZ065>067-074>077-082>085-091>093-280500-
   South Central Minnesota

CITY           SKY/WX    TMP DP  RH WIND       PRES   REMARKS
MANKATO        CLOUDY    27  16  63 SE13      30.16R WCI  16
NEW ULM        CLOUDY    28  16  59 SE9       30.15R WCI  20
ST JAMES       CLOUDY    32  23  69 CALM      30.15S
FAIRMONT       CLOUDY    30  18  59 SE6       30.13R WCI  24
GLENCOE        CLOUDY    26  17  66 E6        30.15S WCI  20
FARIBAULT      MOCLDY    25  10  54 CALM      30.17S
OWATONNA       PTCLDY    25  10  54 SE8       30.16S WCI  16
WASECA         CLOUDY    25  14  63 E8        30.18R WCI  16
ALBERT LEA     PTCLDY    25  12  58 SE6       30.16S WCI  18
$$
MNZ078>079-086>088-094>096-280500-
   Southeast Minnesota

CITY           SKY/WX    TMP DP  RH WIND       PRES   REMARKS
ROCHESTER      PTCLDY    22  10  60 SW3       30.17S
RED WING       PTCLDY    25  12  58 CALM      30.19S
STANTON        MOCLDY    24  10  54 CALM      30.17S
DODGE CENTER   PTCLDY    19  10  68 SE5       30.16S WCI  13
WINONA         PTCLDY    28  16  59 CALM      30.21S
AUSTIN         PTCLDY    21  12  68 CALM      30.17S
PRESTON        CLEAR     22  10  60 CALM      30.18R
$$
ABBREVIATIONS USED IN REMARKS
   TC - TEMPERATURES IN CELSIUS
  WCI - WIND CHILL INDEX
   HX - HEAT INDEX
  VSB - VISIBILITY
$$


USA.gov is the U.S. government's official web portal to all federal, state and local government web resources and services.